Date String (YYYY-MM-DD hh:mm:ss) UTC,Instrument flags,absolute air pressure of the measurement (hPa),sample flow rate (lpm),inlet stack bypass flow (lpm),air temperature of the measurement (°C),ambient temperature measured by the external sensor (°C),aerosol sample conditioner tube jacket temperature (°C),OPC LED temperature (°C),internal box temperature (°C),relative humidity of the measurement (%),span deviation,mass concentration of particles derived from Lorenz-Mie calculation of OPC scattering (μg/m³),mass concentration of particles derived from Lorenz-Mie calculation of OPC scattering (μg/m³),mass concentration of particles derived from Lorenz-Mie calculation of OPC scattering (μg/m³)
DateTimeUTC,F1_M11,P_M11,Q1_M11,Q2_M11,T1_M11,T2_M11,T3_M11,T4_M11,T5_M11,U1_M11,ZSPAN_M11,X0_M11,X2_M11,X1_M11
2024-04-09 17:00:00,SystemResetWarning,0828.8,4.99,000.00,021.6,021.1,000.0,029.9,023.4,017.7,0000.0,0010.06,0003.40,0002.78
2024-04-09 17:01:00,SystemResetWarning,0828.8,4.99,000.00,021.6,021.1,000.0,029.9,023.4,017.8,0000.0,0009.87,0003.40,0002.77
2024-04-09 17:02:00,SystemResetWarning,0829.0,5.01,000.00,021.7,021.2,000.0,030.0,023.4,017.7,0000.0,0009.26,0003.40,0002.77
2024-04-09 17:03:00,SystemResetWarning,0829.0,5.00,000.00,021.7,021.2,000.0,030.0,023.4,017.2,0000.0,0008.84,0003.41,0002.78
2024-04-09 17:04:00,SystemResetWarning,0829.0,5.01,000.00,021.7,021.2,000.0,030.0,023.4,017.3,0000.0,0009.03,0003.39,0002.77
2024-04-09 17:05:00,SystemResetWarning,0829.0,5.00,000.00,021.7,021.2,000.0,030.0,023.4,017.2,0000.0,0009.73,0003.36,0002.75
2024-04-09 17:06:00,SystemResetWarning,0829.0,5.00,000.00,021.7,021.2,000.0,030.0,023.5,017.3,0000.0,0009.58,0003.36,0002.76
2024-04-09 17:07:00,SystemResetWarning,0828.9,5.00,000.00,021.7,021.2,000.0,030.0,023.5,017.3,0000.0,0008.82,0003.41,0002.80
2024-04-09 17:08:00,SystemResetWarning,0828.9,4.99,000.00,021.7,021.2,000.0,030.0,023.5,017.1,0000.0,0008.79,0003.45,0002.84
2024-04-09 17:09:00,SystemResetWarning,0828.9,4.99,000.00,021.7,021.2,000.0,030.0,023.4,016.9,0000.0,0008.96,0003.47,0002.85
2024-04-09 17:10:00,SystemResetWarning,0828.8,5.00,000.00,021.7,021.2,000.0,030.0,023.5,016.9,0000.0,0009.20,0003.45,0002.84
2024-04-09 17:11:00,SystemResetWarning,0828.9,4.98,000.00,021.7,021.1,000.0,030.0,023.5,017.5,0000.0,0009.53,0003.41,0002.83
2024-04-09 17:12:00,SystemResetWarning,0828.8,5.00,000.00,021.7,021.2,000.0,030.0,023.5,018.0,0000.0,0009.36,0003.39,0002.83
2024-04-09 17:13:00,SystemResetWarning,0828.9,5.00,000.00,021.7,021.2,000.0,030.0,023.5,017.6,0000.0,0009.23,0003.40,0002.83
2024-04-09 17:14:00,SystemResetWarning,0828.8,5.00,000.00,021.7,021.2,000.0,030.1,023.5,017.4,0000.0,0009.44,0003.44,0002.86
2024-04-09 17:15:00,SystemResetWarning,0828.9,5.00,000.00,021.7,021.2,000.0,030.1,023.5,017.5,0000.0,0009.65,0003.44,0002.89
2024-04-09 17:16:00,SystemResetWarning,0828.9,5.01,000.00,021.7,021.2,000.0,030.1,023.5,017.5,0000.0,0008.64,0003.44,0002.92
2024-04-09 17:17:00,SystemResetWarning,0828.9,5.00,000.00,021.7,021.2,000.0,030.1,023.5,017.5,0000.0,0008.70,0003.45,0002.94
2024-04-09 17:18:00,SystemResetWarning,0828.9,5.00,000.00,021.8,021.2,000.0,030.1,023.5,017.3,0000.0,0008.94,0003.44,0002.96
2024-04-09 17:19:00,SystemResetWarning,0828.9,5.00,000.00,021.8,021.3,000.0,030.1,023.5,017.3,0000.0,0008.90,0003.45,0002.97
2024-04-09 17:20:00,SystemResetWarning,0828.8,4.99,000.00,021.8,021.3,000.0,030.1,023.6,017.3,0000.0,0008.98,0003.46,0002.98
2024-04-09 17:21:00,SystemResetWarning,0828.8,5.00,000.00,021.8,021.3,000.0,030.1,023.6,017.1,0000.0,0009.23,0003.49,0002.98
2024-04-09 17:22:00,SystemResetWarning,0828.8,5.00,000.00,021.8,021.3,000.0,030.1,023.6,016.8,0000.0,0009.17,0003.55,0003.01
2024-04-09 17:23:00,SystemResetWarning,0828.8,5.00,000.00,021.8,021.3,000.0,030.1,023.6,017.1,0000.0,0008.71,0003.56,0003.04
2024-04-09 17:24:00,SystemResetWarning,0828.8,5.00,000.00,021.8,021.4,000.0,030.1,023.6,017.2,0000.0,0009.33,0003.58,0003.03
2024-04-09 17:25:00,SystemResetWarning,0828.8,5.00,000.00,021.9,021.4,000.0,030.2,023.7,017.3,0000.0,0009.85,0003.56,0003.03
2024-04-09 17:26:00,SystemResetWarning,0828.8,5.00,000.00,021.9,021.4,000.0,030.2,023.7,017.0,0000.0,0009.41,0003.59,0003.05
2024-04-09 17:27:00,SystemResetWarning,0828.7,4.99,000.00,021.9,021.4,000.0,030.2,023.7,016.9,0000.0,0009.53,0003.61,0003.07
2024-04-09 17:28:00,SystemResetWarning,0828.8,4.99,000.00,021.9,021.4,000.0,030.2,023.7,017.0,0000.0,0009.58,0003.62,0003.08
2024-04-09 17:29:00,SystemResetWarning,0828.8,4.99,000.00,021.9,021.4,000.0,030.2,023.7,017.1,0000.0,0009.80,0003.66,0003.09
2024-04-09 17:30:00,SystemResetWarning,0828.7,5.00,000.00,021.9,021.4,000.0,030.2,023.7,016.9,0000.0,0009.62,0003.66,0003.08
2024-04-09 17:31:00,SystemResetWarning,0828.7,5.00,000.00,021.9,021.4,000.0,030.2,023.7,017.0,0000.0,0009.51,0003.65,0003.08
2024-04-09 17:32:00,SystemResetWarning,0828.8,5.00,000.00,021.9,021.5,000.0,030.2,023.7,017.2,0000.0,0009.25,0003.64,0003.10
2024-04-09 17:33:00,SystemResetWarning,0828.8,5.00,000.00,022.0,021.5,000.0,030.2,023.8,017.1,0000.0,0009.47,0003.61,0003.10
2024-04-09 17:34:00,SystemResetWarning,0828.8,5.00,000.00,022.0,021.5,000.0,030.3,023.8,017.0,0000.0,0010.43,0003.63,0003.11
2024-04-09 17:35:00,SystemResetWarning,0828.8,5.00,000.00,022.0,021.5,000.0,030.3,023.7,017.2,0000.0,0010.93,0003.65,0003.14
2024-04-09 17:36:00,SystemResetWarning,0828.8,5.00,000.00,022.0,021.5,000.0,030.3,023.7,017.0,0000.0,0010.20,0003.66,0003.15
2024-04-09 17:37:00,SystemResetWarning,0828.7,5.00,000.00,022.0,021.4,000.0,030.3,023.8,017.0,0000.0,0010.66,0003.67,0003.16
2024-04-09 17:38:00,SystemResetWarning,0828.7,5.00,000.00,022.0,021.4,000.0,030.3,023.8,017.3,0000.0,0010.89,0003.69,0003.16
2024-04-09 17:39:00,SystemResetWarning,0828.7,5.00,000.00,022.0,021.4,000.0,030.3,023.8,017.1,0000.0,0011.03,0003.72,0003.15
2024-04-09 17:40:00,SystemResetWarning,0828.7,5.00,000.00,022.0,021.4,000.0,030.3,023.8,016.8,0000.0,0010.77,0003.72,0003.15
2024-04-09 17:41:00,SystemResetWarning,0828.7,5.00,000.00,022.0,021.4,000.0,030.3,023.8,016.9,0000.0,0010.74,0003.73,0003.16
2024-04-09 17:42:00,SystemResetWarning,0828.7,5.00,000.00,022.0,021.4,000.0,030.3,023.8,017.2,0000.0,0011.31,0003.73,0003.18
2024-04-09 17:43:00,SystemResetWarning,0828.6,5.00,000.00,022.0,021.4,000.0,030.3,023.8,017.2,0000.0,0011.60,0003.73,0003.19
2024-04-09 17:44:00,SystemResetWarning,0828.6,5.00,000.00,022.0,021.4,000.0,030.4,023.8,017.2,0000.0,0011.92,0003.74,0003.20
2024-04-09 17:45:00,SystemResetWarning,0828.6,4.99,000.00,022.0,021.4,000.0,030.4,023.8,017.2,0000.0,0011.29,0003.76,0003.21
2024-04-09 17:46:00,SystemResetWarning,0828.6,5.00,000.00,022.0,021.4,000.0,030.4,023.8,017.4,0000.0,0010.46,0003.73,0003.20
2024-04-09 17:47:00,SystemResetWarning,0828.6,5.01,000.00,022.0,021.4,000.0,030.4,023.8,017.1,0000.0,0010.49,0003.74,0003.20
2024-04-09 17:48:00,SystemResetWarning,0828.6,5.00,000.00,022.0,021.4,000.0,030.4,023.8,016.8,0000.0,0011.06,0003.74,0003.20
2024-04-09 17:49:00,SystemResetWarning,0828.6,4.99,000.00,022.0,021.4,000.0,030.4,023.8,016.9,0000.0,0011.58,0003.71,0003.19
2024-04-09 17:50:00,SystemResetWarning,0828.6,4.99,000.00,022.0,021.4,000.0,030.4,023.8,016.9,0000.0,0013.98,0003.72,0003.20
2024-04-09 17:51:00,SystemResetWarning,0828.6,4.99,000.00,022.0,021.3,000.0,030.4,023.8,016.5,0000.0,0014.54,0003.75,0003.21
2024-04-09 17:52:00,SystemResetWarning,0828.5,5.01,000.00,022.0,021.3,000.0,030.4,023.8,016.5,0000.0,0014.64,0003.77,0003.20
2024-04-09 17:53:00,SystemResetWarning,0828.6,5.01,000.00,022.0,021.3,000.0,030.4,023.8,016.6,0000.0,0015.00,0003.76,0003.19
2024-04-09 17:54:00,SystemResetWarning,0828.5,5.00,000.00,022.0,021.3,000.0,030.4,023.8,016.5,0000.0,0015.80,0003.80,0003.20
2024-04-09 17:55:00,SystemResetWarning,0828.5,5.00,000.00,022.0,021.3,000.0,030.4,023.8,016.4,0000.0,0015.40,0003.85,0003.21
2024-04-09 17:56:00,SystemResetWarning,0828.5,5.00,000.00,022.0,021.3,000.0,030.4,023.8,016.4,0000.0,0015.38,0003.88,0003.22
2024-04-09 17:57:00,SystemResetWarning,0828.5,4.99,000.00,022.0,021.3,000.0,030.4,023.7,016.1,0000.0,0016.05,0003.94,0003.24
2024-04-09 17:58:00,SystemResetWarning,0828.5,5.00,000.00,022.0,021.3,000.0,030.4,023.7,016.1,0000.0,0016.25,0003.97,0003.26
2024-04-09 17:59:00,SystemResetWarning,0828.5,5.00,000.00,022.0,021.3,000.0,030.4,023.7,016.1,0000.0,0015.67,0004.02,0003.28
